Flag for Uruguay Weather past 2 weeks in Maldonado, Uruguay

Now
70 °F

Scattered clouds.


Feels Like: 70 °F
Forecast: 70 / 88 °F
Wind: 5 mph from Northeast

Location: Capitan Corbeta

Current Time: Dec 26, 2014 at 8:11:00 AM

Latest Report: Dec 26, 2014 at 7:00 AM


Visibility: N/A

Pressure: 29.92 "Hg

Humidity: 88%

Dew point: 66 °F

Location of MaldonadoLocation

Historic Weather in Maldonado — Graph

°F

Maldonado temperature yesterday

Maximum temperature yesterday: 88 °F (at 4:00 PM)
Minimum temperature yesterday: 64 °F (at 12:00 AM)
Average temperature yesterday: 75 °F

Past Weeks' High & Low Weather Summary

 TemperatureHumidityPressure
High91 °F (Dec 19, 3:00 PM)94% (Dec 12, 7:00 AM)30.21 "Hg (Dec 12, 7:00 AM)
Low50 °F (Dec 23, 6:00 AM)23% (Dec 19, 4:00 PM)29.53 "Hg (Dec 20, 4:00 PM)
Average69 °F65%29.91 "Hg
* Reported Dec 11 10:00 AM — Dec 26 7:00 AM, Maldonado, Weather by CustomWeather, © 2014

Note: Actual official high and low records may vary slightly from our data, if they occured in-between our weather recording intervals... More about our weather records

Advertising

Maldonado weather history for previous 24 hours

 ConditionsComfort  
Time TempWeatherWind HumidityBarometerVisibility
7:00 AM
Dec 26
70 °FScattered clouds.5 mph88%29.92 "HgN/A
6:00 AM72 °FClear.7 mph83%29.92 "Hg10 mi
4:00 AM73 °FClear.6 mph78%29.92 "Hg10 mi
3:00 AM73 °FClear.6 mph78%29.92 "Hg10 mi
2:00 AM73 °FClear.6 mph78%29.92 "Hg10 mi
1:00 AM73 °FClear.9 mph74%29.92 "Hg10 mi
12:00 AM75 °FClear.7 mph74%29.89 "Hg10 mi
10:00 PM
Dec 25
77 °FPassing clouds.8 mph69%29.89 "HgN/A
9:00 PM77 °FPassing clouds.3 mph69%29.86 "HgN/A
8:00 PM81 °FScattered clouds.6 mph66%29.86 "HgN/A
6:00 PM82 °FPartly sunny.6 mph55%29.86 "HgN/A
5:00 PM82 °FPartly sunny.15 mph55%29.86 "HgN/A
4:00 PM88 °FPartly sunny.9 mph38%29.89 "HgN/A
3:00 PM84 °FPartly sunny.12 mph43%29.89 "HgN/A
2:00 PM82 °FPartly sunny.9 mph45%29.92 "HgN/A
1:00 PM82 °FScattered clouds.14 mph42%29.95 "HgN/A
12:00 PM82 °FPassing clouds.12 mph45%29.95 "HgN/A
11:00 AM79 °FPassing clouds.9 mph51%29.98 "HgN/A
10:00 AM73 °FScattered clouds.6 mph65%29.98 "HgN/A
9:00 AM70 °FScattered clouds.9 mph69%29.98 "HgN/A
8:00 AM68 °FScattered clouds.6 mph69%30.01 "HgN/A
Weather by CustomWeather, © 2014

See weather overviewHow to use our weather pages